Vorticity
8 5 4 4 5 3 0 -2 -1 2 5 8 8 8 9 9 9 9 10 10 10 10 10 10 11 11 12 11 12 12 12 13 14 16 17 17 16 14 14 13 13 13 13 14 15 15 16 16 18 19 21 21 20 19 17 16 16 16 17 17 16 12 6 -0 -3 -5 -7 -10 -11
8 6 4 5 6 4 1 -2 2 5 8 8 5 4 4 7 10 11 11 10 9 8 8 9 9 9 8 8 7 7 8 9 10 11 12 13 13 13 13 14 14 14 14 14 14 14 14 14 14 15 15 15 14 13 12 11 9 9 10 12 9 5 -0 -5 -6 -7 -8 -9 -7
7 7 8 7 6 3 1 0 5 7 5 -0 -3 -1 3 9 12 12 10 8 8 7 7 7 7 6 6 5 4 3 3 4 5 6 7 8 8 8 8 8 8 8 8 8 8 8 7 6 6 6 6 5 4 2 1 -0 1 3 5 7 4 1 -2 -5 -8 -9 -8 -6 -1
8 8 9 7 5 2 2 6 10 6 -1 -8 -4 3 9 12 13 12 10 8 7 6 5 6 6 5 4 3 2 1 0 0 2 4 6 6 6 5 4 3 3 3 3 4 5 5 4 4 3 2 0 -1 -3 -4 -5 -6 -2 2 6 8 6 3 -2 -7 -8 -6 -3 2 5
7 9 10 9 4 3 6 15 11 2 -5 -1 10 15 16 13 12 11 10 9 7 6 5 5 5 5 4 3 2 1 0 1 4 5 5 4 4 5 5 4 2 0 -1 -1 2 4 5 6 5 4 2 -0 -2 -3 -4 -4 -1 2 4 7 6 3 0 -3 -1 2 4 6 6
1 1 1 -1 -1 8 19 24 3 -7 -3 17 25 22 16 11 10 10 10 8 6 5 4 4 5 5 5 4 4 5 5 7 4 -2 -7 -8 -4 0 5 8 8 5 0 -4 -4 -1 2 5 6 7 6 6 6 5 5 4 5 4 3 4 -2 -4 -3 1 4 6 6 5 5
2 0 -2 -3 2 14 21 12 -11 -7 11 32 27 18 11 9 10 10 10 7 5 4 4 4 5 5 5 5 7 9 11 11 -1 -12 -18 -16 -9 -3 3 7 9 10 7 2 -3 -4 -1 3 6 7 9 11 14 14 13 9 4 -2 -7 -9 -10 -7 -1 5 6 6 6 5 5
4 5 5 4 7 16 16 -4 -13 4 27 32 18 10 8 9 10 10 9 6 4 3 4 5 6 5 4 4 6 9 12 12 2 -6 -9 -8 -4 -0 2 4 5 6 7 7 4 2 3 6 7 8 10 12 12 8 1 -8 -14 -16 -14 -8 -2 4 7 8 7 6 6 5 4
12 12 11 10 10 7 -2 -22 -3 19 30 18 9 7 8 10 11 10 7 4 4 4 4 5 5 4 2 1 2 5 6 6 3 -0 -1 -0 1 2 2 1 -0 0 2 3 3 3 4 5 5 4 2 -0 -4 -8 -11 -12 -9 -5 -0 5 8 9 8 7 6 5 4 4 3
19 17 16 15 17 12 4 -2 22 27 19 8 7 8 10 12 10 8 6 4 4 4 4 4 4 3 1 1 1 3 4 3 2 0 -0 0 1 1 1 0 -1 -0 1 2 3 4 3 3 1 -2 -4 -6 -7 -6 -5 -2 1 4 6 8 8 7 6 6 4 3 2 2 2
20 20 21 24 31 28 23 25 23 16 9 7 9 10 11 11 9 7 5 4 3 3 3 3 2 2 1 1 2 3 3 2 0 0 0 0 1 1 1 1 2 2 2 3 4 4 4 4 4 2 1 1 2 3 4 5 6 7 7 6 6 4 4 3 2 2 1 0 0
22 30 38 46 40 26 13 10 10 9 8 9 11 12 12 10 8 6 4 3 2 2 2 1 0 0 1 2 2 2 2 1 0 0 0 1 1 1 1 2 3 3 4 5 5 5 6 6 6 6 6 6 6 6 7 7 6 6 5 4 3 2 2 1 1 0 0 1 1
37 43 42 32 9 -3 -5 5 8 9 10 12 13 13 12 9 7 5 4 2 2 1 1 -0 -0 0 1 1 0 0 1 1 1 0 0 0 0 0 1 2 3 4 5 6 7 6 6 6 6 6 6 6 6 6 6 5 4 4 3 2 2 2 1 1 1 2 2 3 4
35 23 5 -14 -18 -9 3 11 11 12 13 14 14 12 10 8 6 4 3 3 2 2 2 2 2 2 0 -0 -0 0 1 1 1 0 -0 -0 -0 1 2 3 5 6 6 7 7 7 6 6 6 6 6 5 5 4 4 4 3 3 3 3 3 3 4 4 5 6 6 7 7
-2 -15 -23 -19 -4 8 16 18 17 16 15 14 12 10 8 5 3 2 2 2 2 2 1 1 1 -1 -2 -2 -1 0 0 0 -0 -0 -1 -0 1 3 4 6 7 7 7 7 7 6 6 5 5 5 5 5 4 4 4 4 5 5 5 6 6 7 7 7 8 9 9 10 10
-17 -14 -5 7 18 23 23 20 18 16 13 11 9 7 6 4 3 2 1 1 1 0 -1 -2 -2 -3 -3 -3 -2 -1 -1 -1 -0 -0 0 2 4 6 8 8 8 8 7 6 6 6 5 5 5 5 6 6 6 6 7 7 8 8 8 9 9 9 10 10 10 10 11 12 12
0 10 20 28 28 23 16 11 10 9 7 7 6 6 6 4 4 2 1 0 0 0 -0 -1 -0 -1 -2 -3 -3 -2 -1 -0 1 2 3 4 6 8 8 8 7 7 6 6 6 6 6 7 7 8 8 9 9 10 10 10 10 11 11 11 11 11 11 12 12 12 12 13 13
23 32 35 30 19 10 4 2 3 4 4 4 4 4 4 3 2 1 -0 -0 0 0 1 1 1 1 0 -2 -2 -1 0 2 3 4 6 7 8 8 8 8 7 7 7 8 8 9 10 10 10 11 11 11 11 12 12 12 12 12 12 12 12 12 13 13 13 13 13 13 14
24 26 23 13 4 -0 -1 0 2 3 3 2 2 1 -0 -1 -1 -1 -1 -1 -0 0 1 1 1 1 0 -0 -1 0 2 4 5 6 7 8 9 9 9 9 9 10 10 11 11 12 12 12 12 11 11 11 11 11 11 11 12 12 12 13 13 13 13 13 13 14 14 14 14
6 5 4 1 -1 -1 0 1 1 1 1 1 0 -0 -1 -1 -2 -2 -1 -0 -0 0 0 0 0 0 1 1 2 3 4 6 7 8 9 10 10 10 11 11 12 12 12 12 12 12 11 11 11 10 10 10 10 11 11 11 12 12 12 13 13 13 13 13 13 13 13 13 13
-2 -2 -2 -0 1 1 1 1 1 1 1 0 0 -0 -0 -0 -1 -1 -0 -0 -0 -0 0 1 1 1 2 3 4 6 7 9 11 11 12 12 12 13 13 13 12 12 12 11 10 10 10 10 10 10 10 10 11 11 12 12 12 12 12 12 12 12 12 12 12 12 12 12 12
-1 -1 -1 0 1 1 1 2 1 1 0 0 -0 -1 -1 -1 -1 -1 -0 -1 -0 0 1 2 2 4 5 6 8 10 11 13 14 14 14 13 13 13 12 11 10 10 10 9 9 9 9 10 10 11 11 12 12 12 12 12 12 11 11 11 11 11 11 10 10 10 10 10 10
-0 -0 -0 0 0 1 1 0 0 -0 -1 -1 -1 -2 -2 -1 -1 -1 -0 0 1 2 3 4 6 8 10 12 13 14 14 14 14 13 13 12 11 10 10 9 8 8 9 9 10 10 11 11 11 11 11 11 11 10 10 10 10 10 10 10 10 10 10 10 10 10 10 10 10
0 0 -0 -0 -0 -0 -0 -1 -1 -2 -2 -2 -1 -1 -1 -0 0 1 2 3 5 6 8 10 12 14 16 17 16 15 14 13 12 11 10 9 9 8 8 8 9 10 10 11 11 12 11 11 10 10 9 9 8 8 8 8 8 9 9 9 9 9 9 10 10 10 10 10 10
0 0 -0 -0 -0 -1 -1 -1 -1 -1 -0 0 1 1 2 3 3 4 6 8 10 13 15 16 18 18 17 15 13 12 11 10 9 9 8 8 9 9 10 10 11 11 11 11 11 10 9 8 8 8 7 7 8 8 8 9 9 9 9 9 9 10 10 10 10 10 10 11 11
1 1 1 1 1 1 2 2 2 3 3 4 4 5 6 7 9 11 13 16 17 18 18 17 16 14 12 10 9 9 8 8 8 9 9 10 10 11 11 11 11 10 10 9 8 7 7 6 6 7 7 8 9 9 10 10 10 10 10 11 11 11 11 12 12 12 12 12 12
3 3 4 4 4 5 6 6 7 8 9 10 11 12 14 15 17 19 20 19 18 16 15 13 11 10 9 8 8 8 9 9 10 10 10 11 11 11 10 9 8 8 7 6 6 6 6 7 8 8 9 10 11 11 11 11 11 12 12 13 13 13 13 13 13 13 13 14 14
6 7 8 8 10 11 12 13 14 16 17 18 18 19 19 19 19 18 16 14 12 11 10 10 9 8 8 9 9 10 10 10 11 11 10 10 9 8 7 7 6 6 6 6 7 7 8 9 10 11 12 12 13 13 13 13 13 13 14 14 14 14 14 14 14 14 14 15 15
13 14 15 16 17 18 18 19 20 19 18 18 17 16 16 14 13 12 10 9 9 9 9 9 9 9 10 11 11 11 11 11 10 9 8 7 7 6 6 6 6 7 8 8 9 10 10 11 12 13 13 14 14 14 14 14 14 14 14 14 14 14 14 14 14 15 15 16 16
18 18 18 18 18 17 17 16 15 14 13 12 12 11 10 10 9 8 8 8 9 9 9 9 9 10 11 11 10 10 10 9 8 7 6 6 6 6 7 8 8 9 10 10 10 11 12 12 13 13 13 13 14 14 14 14 14 14 14 13 13 13 14 14 14 15 15 16 16
15 15 15 14 13 12 11 10 10 9 9 9 9 9 9 9 9 9 9 9 9 9 10 10 10 10 10 9 9 8 7 6 6 6 6 6 7 8 9 9 10 10 11 11 11 12 12 12 13 13 13 13 13 13 13 13 13 13 13 13 13 13 13 13 14 14 14 15 16
11 10 10 10 10 9 9 9 9 9 9 9 10 10 10 10 10 10 10 10 10 10 10 10 10 9 8 7 7 6 6 6 6 7 7 8 8 9 10 10 10 11 11 11 11 12 12 12 12 12 12 12 12 12 12 12 12 12 12 12 12 13 13 13 13 14 14 15 15
9 9 9 9 9 9 10 10 10 10 11 11 11 11 11 11 10 10 10 10 9 9 8 8 7 7 6 6 6 6 6 6 7 8 8 8 9 9 10 10 10 10 10 10 11 11 11 11 11 11 11 11 11 10 10 10 10 10 10 11 12 13 13 13 14 14 14 14 15
9 9 10 10 10 11 11 11 11 11 11 10 10 10 10 9 9 8 8 7 7 7 6 6 6 5 5 5 6 6 7 7 8 8 8 9 9 9 10 10 10 10 10 10 10 10 10 10 11 11 11 11 10 10 9 8 8 8 9 10 11 12 13 14 14 14 14 14 14
10 11 11 11 11 11 11 11 10 10 9 8 8 7 7 6 6 6 6 5 5 5 5 5 5 5 5 5 6 7 7 8 8 9 9 9 9 10 10 9 9 9 9 9 8 9 9 10 10 10 10 10 9 8 8 7 6 6 7 8 9 11 12 13 14 14 14 14 14
11 11 11 11 10 10 9 8 8 7 6 6 5 5 5 5 4 4 4 4 4 4 4 4 4 5 5 6 6 7 8 8 9 9 10 10 10 10 10 9 9 9 9 8 8 8 9 10 10 10 10 10 9 8 7 6 5 5 5 6 8 10 12 13 14 14 14 14 14
10 10 9 8 8 7 6 5 5 4 4 4 5 5 6 6 6 6 6 6 5 5 5 5 5 5 6 6 7 7 8 8 9 9 10 10 10 10 10 10 10 10 10 10 10 10 11 11 12 12 12 11 10 9 8 7 6 6 5 6 7 9 11 12 13 14 14 14 14
9 8 7 6 5 4 4 4 4 5 6 7 8 10 10 11 11 11 11 10 10 9 8 8 8 7 7 8 8 9 9 10 10 10 11 12 12 12 12 13 13 14 14 14 14 14 14 15 15 14 14 13 12 12 11 9 8 7 7 7 8 10 11 12 13 13 14 14 14
6 5 4 3 3 3 4 5 6 8 10 12 14 16 17 18 18 19 18 18 17 16 15 14 13 13 12 11 11 11 11 12 12 12 13 13 14 15 15 16 16 16 17 17 17 17 17 17 17 16 16 16 15 14 14 12 11 10 9 9 10 11 12 12 13 13 14 14 14
4 3 2 2 3 4 6 8 10 12 13 15 17 20 22 24 25 26 26 26 25 24 23 21 20 18 17 15 14 14 13 14 14 15 15 15 16 16 17 17 17 17 17 17 17 17 17 17 16 16 16 16 16 16 15 14 13 12 12 12 13 13 13 14 14 14 14 15 15
2 2 2 3 5 6 8 10 12 13 14 15 18 21 24 27 29 30 31 31 30 29 27 25 23 21 19 17 16 15 15 15 15 15 16 16 16 16 16 16 16 15 15 15 15 15 15 15 15 15 15 15 15 15 14 14 13 13 14 16 16 16 16 15 16 16 16 16 15
Height
3119 3120 3120 3121 3121 3122 3122 3123 3124 3124 3125 3125 3126 3127 3128 3128 3129 3130 3131 3132 3132 3132 3133 3133 3133 3133 3133 3133 3133 3133 3134 3134 3134 3134 3135 3136 3136 3137 3137 3137 3138 3138 3138 3139 3139 3139 3140 3140 3140 3140 3140 3141 3141 3141 3141 3141 3141 3141 3140 3140 3140 3140 3140 3141 3141 3141 3141 3141 3141
3117 3118 3118 3119 3119 3120 3120 3121 3122 3122 3123 3124 3125 3126 3127 3127 3128 3129 3130 3130 3131 3131 3131 3132 3132 3132 3132 3132 3132 3133 3133 3133 3134 3134 3135 3135 3135 3136 3136 3137 3137 3137 3137 3137 3138 3138 3138 3138 3138 3139 3139 3139 3139 3139 3139 3139 3140 3139 3139 3138 3137 3136 3137 3138 3138 3139 3139 3139 3139
3116 3116 3116 3117 3117 3117 3117 3119 3120 3120 3121 3122 3124 3124 3125 3126 3127 3127 3128 3128 3129 3129 3130 3130 3130 3131 3131 3131 3132 3132 3132 3133 3134 3134 3134 3134 3135 3135 3135 3135 3136 3136 3137 3137 3137 3137 3137 3137 3137 3137 3137 3137 3138 3138 3138 3138 3138 3138 3138 3137 3136 3134 3133 3134 3135 3136 3137 3137 3137
3113 3113 3114 3114 3115 3115 3115 3116 3117 3118 3119 3121 3122 3123 3124 3124 3125 3126 3126 3127 3127 3127 3128 3128 3129 3129 3129 3130 3130 3131 3132 3132 3133 3133 3133 3134 3134 3134 3134 3135 3135 3135 3136 3136 3136 3136 3136 3136 3136 3136 3136 3136 3136 3136 3136 3136 3136 3136 3136 3136 3135 3133 3132 3133 3134 3135 3135 3135 3135
3111 3111 3111 3112 3113 3113 3113 3113 3114 3116 3117 3119 3120 3121 3122 3123 3123 3124 3124 3125 3125 3126 3126 3127 3127 3127 3128 3129 3129 3130 3131 3132 3132 3132 3132 3132 3133 3133 3133 3134 3134 3134 3134 3134 3134 3135 3135 3134 3134 3134 3134 3134 3134 3134 3134 3133 3133 3133 3133 3133 3133 3132 3132 3133 3133 3132 3132 3132 3132
3108 3108 3108 3109 3111 3111 3111 3112 3112 3113 3115 3117 3118 3119 3120 3121 3122 3122 3122 3123 3123 3124 3124 3125 3126 3126 3127 3127 3128 3129 3129 3130 3131 3131 3131 3132 3132 3132 3132 3132 3133 3133 3133 3133 3133 3133 3133 3133 3133 3133 3133 3132 3132 3132 3132 3131 3131 3131 3131 3131 3131 3131 3131 3131 3131 3130 3130 3130 3129
3105 3106 3106 3107 3107 3108 3108 3108 3108 3110 3113 3114 3116 3117 3118 3119 3120 3120 3121 3121 3122 3122 3122 3123 3124 3125 3125 3126 3127 3127 3128 3128 3129 3129 3129 3130 3130 3131 3131 3131 3131 3131 3131 3131 3131 3131 3131 3131 3131 3131 3131 3131 3130 3129 3129 3129 3129 3129 3129 3130 3130 3129 3129 3129 3128 3128 3127 3127 3127
3103 3103 3103 3103 3104 3104 3104 3104 3106 3108 3111 3112 3113 3115 3116 3117 3118 3118 3119 3119 3120 3120 3121 3122 3122 3123 3124 3124 3125 3125 3126 3127 3127 3127 3127 3128 3128 3128 3128 3129 3129 3130 3130 3129 3129 3129 3129 3129 3129 3129 3128 3128 3128 3127 3127 3127 3128 3128 3128 3128 3127 3127 3126 3126 3125 3125 3125 3124 3124
3101 3101 3101 3101 3101 3101 3101 3101 3103 3106 3109 3110 3112 3113 3114 3115 3116 3116 3117 3117 3118 3118 3119 3120 3121 3121 3122 3123 3123 3124 3124 3125 3125 3126 3126 3126 3126 3126 3126 3127 3127 3127 3127 3128 3128 3128 3128 3128 3127 3127 3127 3127 3127 3126 3126 3126 3126 3126 3125 3125 3124 3124 3123 3123 3122 3122 3122 3122 3122
3097 3097 3097 3097 3097 3098 3099 3100 3102 3104 3107 3108 3110 3112 3112 3113 3114 3114 3115 3115 3116 3117 3117 3118 3119 3120 3120 3121 3122 3122 3122 3122 3123 3124 3124 3124 3125 3125 3125 3125 3125 3126 3126 3126 3126 3126 3126 3126 3126 3126 3125 3125 3125 3125 3124 3123 3123 3122 3122 3122 3122 3121 3121 3121 3120 3120 3119 3119 3119
3094 3094 3093 3093 3093 3094 3097 3098 3100 3103 3105 3107 3108 3109 3110 3111 3112 3112 3113 3113 3114 3115 3116 3117 3117 3118 3119 3119 3119 3120 3120 3121 3122 3122 3122 3123 3123 3123 3123 3124 3124 3124 3123 3123 3123 3123 3123 3123 3123 3123 3123 3122 3122 3122 3121 3121 3120 3119 3119 3119 3119 3118 3118 3118 3118 3117 3117 3116 3116
3089 3088 3088 3089 3091 3092 3094 3096 3099 3101 3103 3104 3106 3107 3108 3109 3109 3110 3111 3112 3112 3113 3114 3115 3116 3116 3117 3117 3117 3118 3118 3119 3120 3120 3121 3121 3121 3121 3122 3122 3122 3122 3121 3121 3121 3121 3121 3121 3121 3120 3120 3119 3119 3119 3118 3117 3117 3117 3116 3116 3116 3116 3116 3116 3116 3115 3114 3113 3113
3085 3085 3086 3087 3089 3091 3093 3095 3097 3099 3101 3102 3104 3105 3106 3106 3107 3108 3109 3110 3111 3112 3112 3113 3114 3114 3114 3115 3116 3116 3117 3117 3117 3118 3118 3118 3119 3119 3119 3119 3119 3119 3119 3118 3118 3118 3118 3118 3117 3117 3117 3116 3116 3115 3115 3114 3114 3114 3113 3113 3113 3113 3113 3112 3112 3112 3111 3110 3110
3083 3084 3085 3086 3088 3091 3092 3094 3095 3097 3099 3100 3102 3102 3103 3104 3105 3106 3107 3108 3109 3110 3110 3111 3112 3112 3113 3113 3114 3114 3115 3115 3115 3116 3116 3116 3116 3116 3116 3116 3116 3116 3116 3115 3115 3115 3115 3115 3114 3114 3113 3113 3113 3112 3112 3112 3111 3111 3111 3110 3110 3110 3109 3109 3109 3108 3108 3107 3106
3082 3083 3085 3087 3089 3090 3091 3092 3093 3095 3097 3099 3100 3101 3102 3102 3103 3104 3105 3106 3107 3107 3108 3109 3109 3110 3111 3111 3112 3112 3112 3113 3113 3113 3113 3113 3113 3113 3113 3113 3113 3112 3112 3112 3112 3112 3112 3112 3111 3111 3111 3110 3110 3109 3109 3109 3108 3108 3107 3107 3107 3107 3106 3106 3105 3105 3104 3103 3103
3082 3084 3086 3087 3088 3089 3089 3090 3092 3094 3096 3098 3099 3100 3101 3101 3102 3102 3103 3104 3105 3105 3106 3107 3107 3108 3108 3109 3109 3110 3110 3110 3111 3111 3111 3110 3110 3110 3110 3110 3110 3109 3109 3109 3109 3109 3109 3108 3108 3108 3107 3107 3107 3107 3106 3106 3105 3105 3104 3104 3104 3103 3103 3102 3102 3101 3100 3100 3099
3083 3085 3085 3086 3086 3086 3087 3089 3091 3093 3095 3097 3098 3100 3100 3100 3100 3101 3101 3102 3103 3104 3104 3105 3105 3106 3107 3107 3107 3107 3107 3107 3108 3108 3107 3107 3107 3107 3107 3107 3107 3107 3107 3107 3106 3106 3106 3105 3105 3105 3104 3104 3104 3103 3103 3103 3102 3102 3102 3101 3101 3100 3100 3099 3098 3097 3097 3096 3095
3083 3083 3083 3082 3083 3084 3086 3089 3091 3092 3094 3096 3097 3098 3099 3099 3099 3099 3100 3100 3101 3102 3102 3103 3103 3104 3104 3104 3105 3105 3105 3105 3105 3105 3105 3105 3104 3104 3104 3104 3104 3103 3103 3103 3103 3103 3102 3102 3102 3101 3101 3101 3100 3100 3100 3100 3099 3099 3098 3098 3097 3097 3097 3096 3095 3094 3093 3092 3092
3081 3080 3080 3081 3082 3084 3087 3089 3091 3091 3092 3094 3096 3097 3097 3098 3098 3098 3098 3099 3099 3100 3100 3101 3101 3101 3102 3102 3102 3102 3102 3102 3102 3102 3102 3102 3102 3101 3101 3101 3101 3100 3100 3100 3100 3100 3099 3099 3098 3098 3098 3097 3097 3097 3097 3097 3096 3096 3096 3095 3094 3094 3093 3092 3092 3091 3090 3089 3088
3080 3080 3080 3082 3083 3085 3087 3089 3090 3090 3091 3092 3093 3094 3095 3096 3096 3096 3097 3097 3097 3098 3098 3098 3099 3099 3099 3099 3100 3100 3100 3100 3100 3099 3099 3099 3099 3098 3098 3098 3098 3097 3097 3097 3097 3097 3097 3096 3096 3095 3095 3095 3094 3094 3094 3094 3093 3093 3092 3092 3091 3091 3090 3089 3088 3087 3087 3086 3085
3080 3081 3082 3083 3085 3086 3087 3088 3089 3090 3090 3091 3092 3092 3093 3093 3094 3094 3094 3095 3095 3095 3096 3096 3096 3097 3097 3097 3097 3097 3097 3097 3097 3097 3097 3096 3096 3096 3096 3095 3095 3095 3095 3095 3095 3094 3094 3093 3093 3092 3092 3092 3092 3091 3091 3090 3090 3089 3089 3088 3088 3087 3087 3086 3085 3084 3083 3082 3082
3081 3082 3082 3083 3085 3086 3087 3087 3088 3088 3089 3089 3090 3091 3091 3092 3092 3092 3092 3092 3093 3093 3094 3094 3094 3094 3095 3095 3095 3095 3095 3094 3094 3094 3094 3094 3094 3093 3093 3093 3093 3092 3092 3092 3092 3092 3091 3091 3090 3090 3089 3089 3088 3088 3088 3087 3087 3086 3086 3085 3084 3084 3083 3082 3082 3081 3080 3079 3078
3081 3081 3082 3083 3084 3084 3085 3086 3086 3087 3087 3087 3088 3088 3089 3089 3090 3090 3090 3091 3091 3091 3092 3092 3092 3092 3092 3092 3092 3092 3092 3092 3092 3092 3092 3091 3091 3091 3091 3090 3090 3090 3090 3089 3089 3089 3088 3088 3087 3087 3087 3086 3086 3085 3085 3084 3083 3083 3082 3082 3081 3080 3080 3079 3078 3077 3077 3076 3075
3080 3081 3081 3082 3082 3083 3084 3084 3085 3085 3085 3086 3086 3087 3087 3087 3087 3088 3088 3088 3089 3089 3089 3089 3089 3089 3089 3089 3089 3089 3089 3089 3089 3089 3089 3089 3089 3088 3088 3088 3087 3087 3087 3087 3086 3086 3086 3085 3085 3084 3083 3083 3082 3082 3081 3081 3080 3079 3079 3078 3078 3077 3077 3076 3075 3074 3073 3072 3072
3079 3080 3080 3081 3081 3082 3082 3082 3083 3083 3083 3084 3084 3084 3085 3085 3085 3086 3086 3086 3087 3087 3087 3087 3087 3087 3087 3087 3087 3087 3087 3087 3087 3087 3087 3086 3086 3086 3085 3085 3085 3084 3084 3084 3083 3083 3082 3082 3082 3081 3080 3080 3079 3079 3078 3077 3077 3076 3076 3075 3074 3074 3073 3073 3072 3071 3071 3070 3069
3078 3078 3079 3079 3080 3080 3080 3081 3081 3081 3082 3082 3082 3082 3082 3083 3083 3083 3084 3084 3084 3084 3084 3084 3084 3084 3084 3084 3084 3084 3084 3084 3084 3084 3084 3083 3083 3083 3082 3082 3082 3082 3081 3081 3080 3080 3079 3079 3078 3078 3077 3077 3076 3076 3075 3074 3073 3073 3072 3072 3071 3071 3070 3069 3069 3068 3067 3067 3066
3076 3076 3077 3077 3077 3078 3078 3078 3079 3079 3079 3079 3080 3080 3080 3081 3081 3081 3081 3081 3081 3081 3082 3082 3082 3082 3082 3082 3082 3082 3082 3082 3082 3081 3081 3081 3080 3080 3080 3079 3079 3078 3078 3078 3077 3077 3076 3076 3075 3075 3074 3074 3073 3072 3072 3071 3070 3070 3069 3068 3068 3067 3067 3066 3066 3065 3064 3064 3063
3074 3074 3074 3075 3075 3076 3076 3076 3077 3077 3077 3077 3077 3077 3078 3078 3078 3078 3078 3078 3079 3079 3079 3079 3079 3079 3079 3079 3079 3079 3079 3079 3079 3079 3078 3078 3078 3077 3077 3077 3076 3076 3075 3075 3074 3074 3073 3073 3072 3072 3072 3071 3070 3070 3069 3068 3067 3067 3066 3066 3065 3064 3064 3063 3062 3062 3061 3061 3060
3072 3072 3072 3072 3073 3073 3073 3074 3074 3074 3074 3075 3075 3075 3075 3076 3076 3076 3076 3076 3076 3076 3077 3077 3077 3077 3077 3077 3077 3077 3077 3077 3076 3076 3076 3075 3075 3075 3074 3074 3073 3073 3072 3072 3071 3071 3070 3070 3070 3069 3068 3068 3067 3067 3066 3065 3065 3064 3063 3063 3062 3062 3061 3060 3059 3059 3058 3058 3057
3069 3070 3070 3070 3071 3071 3071 3071 3072 3072 3072 3072 3072 3073 3073 3073 3073 3074 3074 3074 3074 3074 3074 3074 3074 3074 3074 3074 3074 3074 3074 3074 3074 3073 3073 3073 3072 3072 3072 3071 3071 3070 3070 3069 3068 3068 3067 3067 3067 3066 3066 3065 3064 3064 3063 3063 3062 3061 3061 3060 3059 3059 3058 3057 3057 3056 3055 3055 3054
3067 3068 3068 3068 3069 3069 3069 3069 3070 3070 3070 3070 3071 3071 3071 3071 3071 3072 3072 3072 3072 3072 3072 3072 3072 3072 3072 3072 3072 3072 3071 3071 3071 3071 3070 3070 3070 3069 3069 3068 3068 3067 3067 3066 3066 3065 3065 3064 3064 3063 3063 3062 3062 3061 3061 3060 3059 3059 3058 3057 3057 3056 3055 3054 3054 3053 3052 3052 3051
3066 3066 3066 3067 3067 3067 3067 3067 3068 3068 3068 3068 3069 3069 3069 3069 3069 3069 3069 3069 3069 3069 3069 3070 3070 3069 3069 3069 3069 3069 3069 3068 3068 3068 3068 3067 3067 3067 3066 3066 3065 3064 3064 3063 3063 3062 3062 3062 3061 3061 3060 3059 3059 3058 3057 3057 3057 3056 3055 3055 3054 3053 3052 3052 3051 3050 3050 3049 3048
3064 3064 3065 3065 3065 3065 3066 3066 3066 3066 3067 3067 3067 3067 3067 3067 3067 3067 3067 3067 3067 3067 3067 3067 3067 3067 3067 3067 3067 3067 3066 3066 3066 3065 3065 3064 3064 3064 3063 3063 3062 3062 3061 3061 3060 3060 3059 3059 3058 3057 3057 3057 3056 3055 3055 3054 3054 3053 3053 3052 3051 3050 3050 3049 3048 3047 3047 3046 3046
3062 3062 3063 3063 3063 3064 3064 3064 3064 3065 3065 3065 3065 3065 3065 3065 3065 3065 3065 3065 3065 3065 3065 3065 3065 3065 3064 3064 3064 3064 3063 3063 3063 3062 3062 3062 3061 3061 3061 3060 3059 3059 3058 3058 3057 3057 3057 3056 3055 3055 3054 3054 3053 3052 3052 3052 3051 3051 3050 3049 3048 3048 3047 3046 3046 3045 3044 3044 3043
3061 3061 3061 3062 3062 3062 3062 3062 3062 3062 3063 3063 3063 3062 3062 3062 3062 3062 3062 3062 3062 3062 3062 3062 3062 3062 3062 3062 3062 3061 3061 3060 3060 3060 3059 3059 3058 3058 3058 3057 3057 3056 3056 3055 3055 3054 3054 3053 3052 3052 3052 3051 3050 3050 3049 3049 3048 3048 3047 3047 3046 3045 3044 3044 3043 3042 3042 3041 3041
3059 3059 3060 3060 3060 3060 3060 3061 3061 3061 3061 3061 3061 3060 3060 3060 3060 3059 3059 3060 3060 3060 3060 3060 3060 3060 3059 3059 3059 3058 3058 3058 3057 3057 3057 3056 3056 3055 3055 3055 3054 3053 3053 3052 3052 3051 3051 3050 3050 3049 3049 3048 3048 3047 3047 3046 3046 3045 3045 3044 3043 3042 3042 3041 3041 3040 3039 3039 3038
3057 3058 3058 3058 3058 3058 3059 3059 3059 3059 3059 3058 3058 3058 3057 3057 3057 3057 3057 3057 3057 3057 3057 3057 3057 3057 3057 3056 3056 3056 3055 3055 3055 3054 3054 3053 3053 3053 3052 3052 3051 3051 3050 3049 3049 3048 3048 3047 3047 3047 3046 3046 3045 3045 3044 3043 3043 3042 3042 3041 3041 3040 3039 3039 3038 3037 3037 3036 3036
3056 3056 3057 3057 3057 3057 3057 3057 3057 3057 3057 3056 3056 3056 3055 3054 3054 3054 3054 3054 3054 3054 3054 3054 3054 3054 3054 3053 3053 3053 3053 3053 3052 3052 3051 3051 3050 3050 3049 3049 3048 3048 3047 3047 3046 3045 3045 3044 3044 3044 3043 3043 3042 3042 3041 3041 3040 3040 3039 3038 3038 3037 3037 3036 3035 3035 3034 3034 3033
3054 3055 3055 3055 3055 3055 3055 3055 3055 3055 3054 3054 3053 3053 3052 3052 3051 3051 3050 3051 3050 3050 3051 3051 3051 3051 3051 3051 3051 3051 3050 3050 3050 3049 3049 3048 3048 3047 3047 3046 3046 3045 3044 3044 3043 3042 3042 3042 3041 3041 3040 3040 3039 3039 3038 3038 3037 3037 3036 3036 3035 3034 3034 3033 3033 3032 3032 3031 3031
3053 3053 3053 3053 3053 3053 3053 3053 3053 3052 3052 3052 3051 3050 3050 3049 3048 3048 3047 3047 3047 3047 3047 3048 3048 3048 3048 3048 3048 3048 3048 3047 3047 3047 3046 3046 3045 3045 3044 3043 3043 3042 3042 3041 3040 3040 3039 3039 3038 3038 3037 3037 3036 3036 3035 3035 3034 3033 3033 3033 3032 3032 3031 3031 3030 3030 3029 3029 3028
3051 3051 3052 3052 3052 3051 3051 3051 3051 3050 3050 3049 3049 3048 3047 3047 3046 3045 3045 3045 3045 3045 3045 3045 3045 3046 3046 3046 3046 3046 3045 3045 3045 3044 3044 3043 3043 3042 3042 3041 3040 3040 3039 3039 3038 3037 3037 3036 3035 3035 3034 3034 3033 3032 3032 3032 3031 3031 3030 3030 3029 3029 3028 3028 3027 3027 3027 3027 3026